Location: ???????
(55.4362°N, 38.1183°E)
Time: 08:12:57
(UTC+00:00)

Oscar 11 - Pass Details

Date: 04 December 2021
Orbit: 611 x 625 km, 97.6° (Epoch: 25 January)

Event Time Altitude Azimuth Distance (km) Brightness Sun altitude
Rises 03:15:48 0° 14° (NNE) 2,925 10.5 -18.4°
Reaches altitude 10° 03:18:01 10° 13° (NNE) 2,012 9.7 -18.1°
Maximum altitude 03:22:24 83° 287° (WNW) 636 7.0 -17.5°
Drops below altitude 10° 03:26:44 10° 199° (SSW) 1,989 9.6 -16.9°
Sets 03:28:54 0° 199° (SSW) 2,888 10.5 -16.6°
